Change the Weather History Date:

Wednesday, May 23, 2012

  Actual Average Record
Temperature  
Mean Temperature 66 °F -  
Max Temperature 79 °F 75 °F 91 °F (1964)
Min Temperature 53 °F 49 °F 32 °F (1963)
Growing Degree Days 16 (Base 50)    
Moisture  
Dew Point 57 °F    
Average Humidity 84    
Maximum Humidity 100    
Minimum Humidity 56    
Precipitation  
Precipitation 0.01 in - - ()
Sea Level Pressure  
Sea Level Pressure 29.92 in    
Wind  
Wind Speed 2 mph (ENE)    
Max Wind Speed 7 mph    
Max Gust Speed -    
Visibility 4 miles    
Events      
Averages and records for this station are not official NWS values.
T = Trace of Precipitation, MM = Missing Value Source: NWS Daily Summary

Daily Weather History Graph

Daily Weather History Graph

Search for Another Location

Airport or City:

Trip Planner

Search our weather history database for the weather conditions in past years. The results will help you decide how hot, cold, wet, or windy it might be!

Date:

Astronomy

May. 23, 2012 Rise Set
Actual Time 6:09 AM EDT 8:46 PM EDT
Civil Twilight 5:37 AM EDT 9:17 PM EDT
Nautical Twilight 4:59 AM EDT 9:56 PM EDT
Astronomical Twilight 4:15 AM EDT 10:40 PM EDT
Moon 8:11 AM EDT (5/23) 11:06 PM EDT (5/23)
Length of Visible Light 15h 39m
Length of Day
14h 36m
Waxing Crescent, 6% of the Moon is Illuminated
May 23
Waxing Crescent
May 28
First Quarter
Jun 4
Full
Jun 11
Last Quarter
Jun 19
New

Hourly Weather History & Observations

Time (EDT) Temp. Dew Point Humidity Pressure Visibility Wind Dir Wind Speed Gust Speed Precip Events Conditions
12:53 AM 59.0 °F 57.0 °F 93% 29.93 in 4.0 mi NE 3.5 mph - N/A   Clear
1:53 AM 57.0 °F 55.0 °F 93% 29.92 in 4.0 mi Calm Calm - N/A   Clear
2:15 AM 55.4 °F 53.6 °F 94% 29.92 in 2.5 mi Calm Calm - N/A   Clear
2:30 AM 57.2 °F 55.4 °F 94% 29.92 in 3.0 mi Calm Calm - N/A   Clear
2:45 AM 55.4 °F 53.6 °F 94% 29.92 in 2.5 mi Calm Calm - N/A   Clear
2:53 AM 55.0 °F 53.1 °F 93% 29.91 in 2.5 mi Calm Calm - N/A   Clear
3:01 AM 55.4 °F 53.6 °F 94% 29.92 in 4.0 mi SE 3.5 mph - N/A   Clear
4:10 AM 55.4 °F 53.6 °F 94% 29.91 in 3.0 mi Calm Calm - N/A   Clear
4:19 AM 55.4 °F 53.6 °F 94% 29.91 in 2.5 mi NNW 3.5 mph - N/A   Clear
4:36 AM 55.4 °F 53.6 °F 94% 29.91 in 3.0 mi Calm Calm - N/A   Clear
4:48 AM 53.6 °F 53.6 °F 100% 29.91 in 2.0 mi Calm Calm - N/A   Clear
4:53 AM 54.0 °F 53.1 °F 97% 29.90 in 2.0 mi Calm Calm - N/A   Clear
5:16 AM 53.6 °F 53.6 °F 100% 29.91 in 2.5 mi Calm Calm - N/A   Clear
5:27 AM 53.6 °F 51.8 °F 94% 29.91 in 2.0 mi Calm Calm - N/A   Clear
5:37 AM 53.6 °F 51.8 °F 94% 29.91 in 2.5 mi Calm Calm - N/A   Clear
5:53 AM 54.0 °F 52.0 °F 93% 29.91 in 2.0 mi Calm Calm - N/A   Partly Cloudy
6:14 AM 53.6 °F 53.6 °F 100% 29.92 in 1.8 mi Calm Calm - 0.01 in   Mostly Cloudy
6:26 AM 55.4 °F 53.6 °F 94% 29.93 in 1.0 mi Calm Calm - 0.01 in   Mostly Cloudy
6:45 AM 55.4 °F 55.4 °F 100% 29.93 in 0.8 mi Calm Calm - 0.01 in   Overcast
6:53 AM 55.9 °F 55.0 °F 97% 29.93 in 1.0 mi Calm Calm - 0.01 in   Overcast
7:07 AM 57.2 °F 55.4 °F 94% 29.94 in 1.2 mi Calm Calm - N/A   Overcast
7:53 AM 59.0 °F 57.0 °F 93% 29.94 in 1.8 mi Calm Calm - N/A   Overcast
8:19 AM 60.8 °F 57.2 °F 88% 29.95 in 2.0 mi Calm Calm - N/A   Overcast
8:53 AM 63.0 °F 59.0 °F 87% 29.94 in 2.5 mi Calm Calm - N/A   Mostly Cloudy
9:08 AM 64.4 °F 59.0 °F 83% 29.96 in 2.5 mi Calm Calm - N/A   Haze
9:16 AM 64.4 °F 59.0 °F 83% 29.96 in 3.0 mi Calm Calm - N/A   Haze
9:53 AM 66.0 °F 59.0 °F 78% 29.96 in 4.0 mi NNE 4.6 mph - N/A   Haze
10:53 AM 69.1 °F 59.0 °F 70% 29.96 in 4.0 mi North 5.8 mph - N/A   Haze
11:53 AM 71.1 °F 57.9 °F 63% 29.94 in 6.0 mi NNE 6.9 mph - N/A   Haze
12:53 PM 73.9 °F 60.1 °F 62% 29.94 in 6.0 mi ENE 6.9 mph - N/A   Haze
1:53 PM 75.0 °F 60.1 °F 60% 29.92 in 8.0 mi Calm Calm - N/A   Scattered Clouds
2:53 PM 77.0 °F 61.0 °F 58% 29.90 in 8.0 mi Variable 3.5 mph - N/A   Clear
3:53 PM 78.1 °F 61.0 °F 56% 29.88 in 9.0 mi ENE 5.8 mph - N/A   Partly Cloudy
4:53 PM 75.0 °F 61.0 °F 62% 29.87 in 9.0 mi ENE 4.6 mph - N/A   Scattered Clouds
5:53 PM 75.9 °F 60.1 °F 58% 29.87 in 9.0 mi SE 3.5 mph - N/A   Partly Cloudy
6:53 PM 77.0 °F 60.1 °F 56% 29.87 in 10.0 mi South 6.9 mph - N/A   Mostly Cloudy
7:53 PM 73.9 °F 60.1 °F 62% 29.88 in 9.0 mi SSE 5.8 mph - N/A   Partly Cloudy
8:53 PM 69.1 °F 60.1 °F 73% 29.88 in 8.0 mi ESE 4.6 mph - N/A   Clear
10:53 PM 63.0 °F 59.0 °F 87% 29.90 in 6.0 mi Calm Calm - N/A   Clear
11:53 PM 61.0 °F 60.1 °F 97% 29.90 in 5.0 mi Calm Calm - N/A   Clear